Retour au catalogue

COSMOS 2497

ActifMilitairePO
NORAD 39762·PAYLOAD·🇷🇺 Russia

Lancé May 23, 2014 depuis Plesetsk Cosmodrome

Loading…

Prochains Passages (prochaines 24 heures)

TLE

FraisSource: Space-Track

Époque: Sep 14, 2026, 21:54 UTC

1 39762U 14028B   26257.91264615  .00000000  00000-0 -69315-4 0  9997
2 39762  82.4480  54.2328 0019852 237.7378 122.1778 12.42897351558661

Suivez COSMOS 2497 en temps réel avec AllMySat

Download on the App Store